Terminal Aerodrome Forecast
Issued by NWS

Home | Current Version | Previous Version | Text Only | Print | Product List | Glossary On
Versions: 1 2 3 4 5 6 7 8 9 10 11 12
000
FTUS42 TJSJ 302340
TAFJPS
TAF
TJPS 302340Z 0100/0124 06004KT P6SM VCSH SCT040
     FM011500 14015KT P6SM FEW030 SCT060
     FM012230 08010KT P6SM FEW025 SCT050
      AMD NOT SKED TIL 010300=

USA.gov is the U.S. government's official web portal to all federal, state and local government web resources and services.